Voltar ao catálogo

STARLINK-11579

AtivoComunicaçõesVLEO
NORAD 63143·PAYLOAD·🇺🇸 United States

Lançado Mar 3, 2025 de Cape Canaveral Space Force Station

Loading…

Próximas Passagens (próximas 24 horas)

TLE

AtualizadoSource: CelesTrak SupGP

Época: Sep 15, 2026, 03:15 UTC

1 63143C 25043M   26258.13590278 -.00028992  00000+0 -22526-3 0  2588
2 63143  43.0005 188.4521 0001437 266.8061 356.2054 15.70844578    19

Acompanhe STARLINK-11579 em tempo real com AllMySat

Download on the App Store